{"data":{"norad_id":60359,"intl_designator":"2024-138E","name":"STARLINK-32290","alt_names":[],"object_type":"PAYLOAD","status":"ACTIVE","operator":null,"country":"US","launch_date":"2024-08-04","launch_site_code":"AFWTR","launch_vehicle":null,"mission":null,"orbit_class":"UNKNOWN","rcs_meters":null,"size_class":null,"mass_kg":null,"dimensions":null,"purposes":["comms"],"wikipedia_slug":null,"has_3d_model":false,"image_url":null,"decayed_at":null,"tle_current":{"epoch":"2026-05-25T04:15:56.629728Z","epoch_age_seconds":62881,"freshness":"FRESH","line1":"1 60359U 24138E   26145.17773877  .00001395  00000+0  59214-4 0  9998","line2":"2 60359  53.1604 314.6568 0001016  86.0594 274.0523 15.30200966 83362","mean_motion":15.30200966,"eccentricity":0.0001016,"inclination_deg":53.1604,"raan_deg":314.6568,"arg_perigee_deg":86.0594,"mean_anomaly_deg":274.0523,"bstar":5.9214e-5,"rev_number":8336,"period_min":94.105286298715,"perigee_km":474.51588484176,"apogee_km":475.90848539617,"semimajor_km":6853.349185119,"source":"CELESTRAK","updated_at":"2026-05-25T13:38:19.238374Z"}}}